Weather History for Toledo, OH

Change the Weather History Date:

Tuesday, June 25, 2013

  Actual Average Record
Temperature  
Mean Temperature 79 °F 72 °F  
Max Temperature 90 °F 84 °F 104 °F (1988)
Min Temperature 67 °F 61 °F 39 °F (1979)
Degree Days  
Heating Degree Days 0 0  
Month to date heating degree days 31 35  
Since 1 June heating degree days 31 35  
Since 1 July heating degree days 6165 6145  
Cooling Degree Days 14 8  
Month to date cooling degree days 127 130  
Year to date cooling degree days 221 183  
Since 1 June cooling degree days 127 130  
Growing Degree Days 29 (Base 50)    
Moisture  
Dew Point 66 °F    
Average Humidity 68    
Maximum Humidity 84    
Minimum Humidity 52    
Precipitation  
Precipitation 0.36 in 0.11 in 1.28 in (1993)
Month to date precipitation 5.51 3.03  
Year to date precipitation 20.01 16.40  
Snow  
Snow 0.00 in 0.00 in - ()
Month to date snowfall 0.0 0.0  
Since 1 June snowfall 0.0 0.0  
Since 1 July snowfall 22.4 37.6  
Snow Depth 0.00 in    
Sea Level Pressure  
Sea Level Pressure 29.91 in    
Wind  
Wind Speed 11 mph (West)    
Max Wind Speed 24 mph    
Max Gust Speed 32 mph    
Visibility 9 miles    
Events Rain , Thunderstorm    
T = Trace of Precipitation, MM = Missing Value Source: NWS Daily Summary

Daily Weather History Graph

Daily Weather History Graph

Search for Another Location

Airport:

Trip Planner

Search our weather history database for the weather conditions in past years. The results will help you decide how hot, cold, wet, or windy it might be!

Date:

Astronomy

Jun. 25, 2013 Rise Set
Actual Time 6:02 AM EDT 9:13 PM EDT
Civil Twilight 5:28 AM EDT 9:47 PM EDT
Nautical Twilight 4:44 AM EDT 10:31 PM EDT
Astronomical Twilight 3:51 AM EDT 11:23 PM EDT
Moon 10:55 PM EDT (6/25) 8:43 AM EDT (6/25)
Length of Visible Light 16h 19m
Length of Day
15h 11m
Waning Gibbous, 93% of the Moon is Illuminated
Jun 25
Waning Gibbous
Jun 30
Last Quarter
Jul 8
New
Jul 15
First Quarter
Jul 22
Full

Hourly Weather History & Observations

Time (EDT) Temp. Heat Index Dew Point Humidity Pressure Visibility Wind Dir Wind Speed Gust Speed Precip Events Conditions
12:52 AM 73.0 °F - 64.0 °F 73% 29.93 in 10.0 mi SW 4.6 mph - 0.00 in   Clear
1:52 AM 72.0 °F - 62.1 °F 71% 29.96 in 10.0 mi WSW 9.2 mph - N/A   Clear
2:52 AM 70.0 °F - 62.1 °F 76% 29.95 in 10.0 mi SSW 5.8 mph - N/A   Clear
3:52 AM 69.1 °F - 63.0 °F 81% 29.95 in 10.0 mi WSW 6.9 mph - N/A   Partly Cloudy
4:52 AM 68.0 °F - 63.0 °F 84% 29.96 in 10.0 mi West 6.9 mph - N/A   Partly Cloudy
5:52 AM 70.0 °F - 64.9 °F 84% 29.96 in 10.0 mi WSW 10.4 mph - N/A   Clear
6:52 AM 72.0 °F - 66.9 °F 84% 29.96 in 7.0 mi SW 11.5 mph - N/A   Partly Cloudy
7:52 AM 73.0 °F - 66.9 °F 81% 29.99 in 8.0 mi WSW 13.8 mph - N/A   Clear
8:52 AM 75.0 °F - 66.9 °F 76% 29.96 in 10.0 mi WSW 8.1 mph - 0.00 in   Partly Cloudy
9:52 AM 75.9 °F - 63.0 °F 64% 29.99 in 10.0 mi West 10.4 mph - N/A   Clear
10:52 AM 80.1 °F 82.1 °F 66.0 °F 62% 29.95 in 10.0 mi WSW 4.6 mph - N/A   Clear
11:52 AM 82.9 °F 85.4 °F 66.9 °F 58% 29.94 in 10.0 mi SW 10.4 mph - N/A   Clear
12:52 PM 82.9 °F 86.5 °F 69.1 °F 63% 29.94 in 8.0 mi WSW 15.0 mph 23.0 mph N/A   Scattered Clouds
1:52 PM 82.9 °F 87.0 °F 70.0 °F 65% 29.94 in 8.0 mi West 12.7 mph - N/A   Mostly Cloudy
2:52 PM 86.0 °F 90.1 °F 69.1 °F 57% 29.91 in 10.0 mi West 12.7 mph 21.9 mph N/A   Scattered Clouds
3:52 PM 87.1 °F 91.3 °F 69.1 °F 55% 29.85 in 10.0 mi SW 11.5 mph - N/A   Partly Cloudy
4:52 PM 89.1 °F 93.7 °F 69.1 °F 52% 29.84 in 10.0 mi SW 15.0 mph 26.5 mph N/A   Clear
5:52 PM 88.0 °F 92.1 °F 69.1 °F 53% 29.83 in 10.0 mi WSW 15.0 mph - N/A   Partly Cloudy
6:52 PM 88.0 °F 92.1 °F 69.1 °F 53% 29.81 in 10.0 mi WSW 11.5 mph - N/A   Scattered Clouds
7:52 PM 84.9 °F 88.2 °F 68.0 °F 57% 29.83 in 10.0 mi West 8.1 mph - N/A   Partly Cloudy
8:50 PM 84.2 °F 86.6 °F 66.2 °F 55% 29.86 in 10.0 mi NW 11.5 mph 17.3 mph N/A Thunderstorm Overcast
8:52 PM 84.0 °F 86.3 °F 66.0 °F 55% 29.85 in 10.0 mi NNW 19.6 mph 32.2 mph N/A Thunderstorm Overcast
9:26 PM 71.6 °F - 66.2 °F 83% 29.87 in 8.0 mi WNW 11.5 mph - 0.04 in Rain Light Rain
9:52 PM 71.1 °F - 66.0 °F 84% 29.87 in 10.0 mi WNW 10.4 mph - 0.04 in   Scattered Clouds
10:06 PM 71.6 °F - 64.4 °F 78% 29.88 in 10.0 mi WNW 9.2 mph - N/A Thunderstorm Scattered Clouds
10:45 PM 69.8 °F - 64.4 °F 83% 29.89 in 10.0 mi WNW 9.2 mph - 0.01 in Rain Light Rain
10:52 PM 69.1 °F - 64.9 °F 87% 29.88 in 10.0 mi WNW 6.9 mph - 0.01 in Rain Light Rain
11:17 PM 69.8 °F - 64.4 °F 83% 29.92 in 10.0 mi WNW 9.2 mph - 0.04 in Rain , Thunderstorm Light Rain
11:52 PM 69.1 °F - 64.0 °F 84% 29.95 in 6.0 mi West 6.9 mph - 0.14 in Rain , Thunderstorm Light Thunderstorms and Rain